Regional Weather Roundup
Issued by NWS

Home | Current Version | Previous Version | Graphics & Text | Print | Product List | Glossary On
Versions: 1 2 3 4 5 6 7 8 9 10 11 12 13 14 15 16 17 18 19 20 21 22 23 24 25 26 27 28 29 30 31 32 33 34 35 36 37 38 39 40 41 42 43 44 45 46 47 48 49 50
000
ASUS45 KSLC 271110
RWRUT

UTAH REGIONAL WEATHER ROUNDUP
NATIONAL WEATHER SERVICE SALT LAKE CITY UT
500 AM MDT WED AUG 27 2014

UTZ001>011-023>025-271200-

NORTHERN UTAH

CITY           SKY/WX    TMP DP  RH WIND       PRES   REMARKS
HILL AFB       CLOUDY    57  50  77 E6        30.20S
LOGAN          MOCLDY    55  52  89 NE3       30.18S
OGDEN          MOCLDY    59  50  72 S7        30.18S
PROVO AIRPORT  CLOUDY    57  54  88 NE5       30.21S
SALT LAKE CITY CLOUDY    60  55  83 W3        30.19R
VERNAL         CLOUDY    57  55  93 NE5       30.22F
WENDOVER       MOCLDY    61  50  67 SE5       30.17F
HEBER CITY     CLOUDY    54  50  87 CALM      30.23R
WEST JORDAN    CLOUDY    61  59  94 S5        30.21R

$$

UTZ012>022-026-027-271200-

SOUTHERN UTAH

CITY           SKY/WX    TMP DP  RH WIND       PRES   REMARKS
BRYCE CANYON   PTCLDY    40  38  93 W5        30.34S
CEDAR CITY     PTCLDY    50  45  83 CALM      30.23S
MILFORD        MOCLDY    53  50  89 W6        30.21S
MOAB/CYNLANDS  LGT RAIN  60  56  86 S6        30.18S FOG
PRICE          CLOUDY    57  49  74 CALM      30.24S
ST GEORGE      CLOUDY    64  52  63 NE5       30.16R
KANAB            N/A     52  52 100 NW10      30.27R

$$

REGIONAL REPORTS     COLORADO/ARIZONA

CITY           SKY/WX    TMP DP  RH WIND       PRES   REMARKS
CRAIG, CO      RAIN      54  53  97 NW3       30.28S FOG
GRAND JUNCTION CLOUDY    57  54  89 CALM      30.21R
RIFLE          CLOUDY    56  54  93 CALM      30.24F
MONTROSE       MOCLDY    54  53  97 S3        30.29S
CORTEZ         CLOUDY    52  52 100 NE5       30.32R
PAGE, AZ       MOCLDY    59  51  75 CALM      30.24R
GRAND CANYON     N/A    N/A N/A N/A MISG        N/A
KINGMAN        CLEAR     67  57  70 SE9       30.10R
FLAGSTAFF      HVY RAIN  51  49  92 W8        30.36R FOG

$$

REGIONAL REPORTS    NEVADA/IDAHO/WYOMING

CITY           SKY/WX    TMP DP  RH WIND       PRES   REMARKS
LAS VEGAS, NV  CLEAR     76  46  34 CALM      29.99S
ELY            MOCLDY    39  38  96 S9        30.29S WCI  33
ELKO           CLEAR     50  43  77 CALM      30.22S
POCATELLO, ID  CLEAR     52  50  93 CALM      30.18S
BURLEY         PTCLDY    53  48  83 S5        30.15S
EVANSTON, WY   CLOUDY    50  45  83 S5        30.29S
ROCK SPRINGS   LGT RAIN  52  46  80 SE9       30.29S

$$


USA.gov is the U.S. government's official web portal to all federal, state and local government web resources and services.